Cotulla, TX

7:13 PM CST on November 22, 2019 (GMT -0600)
Cotulla-La Salle County

Weather History for KCOT - August, 2019

Change the Weather History Date:

Thursday, August 29, 2019

  Actual Average Record
Temperature  
Mean Temperature 91 °F -  
Max Temperature 105 °F 93 °F 105 °F (2011)
Min Temperature 77 °F 72 °F 70 °F (2015)
Cooling Degree Days 26    
Growing Degree Days 41 (Base 50)    
Moisture  
Dew Point 67 °F    
Average Humidity 55    
Maximum Humidity 94    
Minimum Humidity 18    
Precipitation  
Precipitation 0.00 in - - ()
Sea Level Pressure  
Sea Level Pressure 29.94 in    
Wind  
Wind Speed 7 mph ()    
Max Wind Speed 17 mph    
Max Gust Speed 28 mph    
Visibility 10.0 miles    
Events      
Averages and records for this station are not official NWS values.
T = Trace of Precipitation, MM = Missing Value Source: Averaged Metar Reports

Daily Weather History Graph

Daily Weather History Graph

Search for Another Location

Airport or City:

Astronomy

Aug. 29, 2019 Rise Set
Actual Time 7:13 AM CDT 8:01 PM CDT
Civil Twilight 6:49 AM CDT 8:25 PM CDT
Nautical Twilight 6:21 AM CDT 8:54 PM CDT
Astronomical Twilight 5:52 AM CDT 9:22 PM CDT
Moon 6:11 AM CDT (8/29) 7:52 PM CDT (8/29)
Length of Visible Light 13h 36m
Length of Day
12h 48m
Waning Crescent, 1% of the Moon is Illuminated
Aug 29
Waning Crescent
Aug 30
New
Sep 5
First Quarter
Sep 13
Full
Sep 21
Last Quarter

Hourly Weather History & Observations

Time (CDT) Temp. Heat Index Dew Point Humidity Pressure Visibility Wind Dir Wind Speed Gust Speed Precip Events Conditions
1:53 AM 82.9 °F 90.8 °F 75.9 °F 79% 29.98 in 10.0 mi ESE 6.9 mph - N/A   Clear
2:53 AM 81.0 °F 86.7 °F 75.0 °F 82% 29.97 in 10.0 mi ESE 6.9 mph - N/A   Clear
3:53 AM 80.1 °F 85.1 °F 75.0 °F 85% 29.96 in 10.0 mi SE 8.1 mph - N/A   Clear
4:53 AM 79.0 °F - 75.0 °F 88% 29.96 in 10.0 mi ESE 5.8 mph - N/A   Clear
5:53 AM 78.1 °F - 73.9 °F 87% 29.96 in 10.0 mi East 5.8 mph - N/A   Clear
6:53 AM 77.0 °F - 73.9 °F 90% 29.97 in 10.0 mi ESE 5.8 mph - N/A   Clear
7:53 AM 77.0 °F - 75.0 °F 94% 29.99 in 10.0 mi SE 5.8 mph - N/A   Clear
8:53 AM 82.0 °F 88.6 °F 75.0 °F 79% 30.00 in 10.0 mi SE 8.1 mph - N/A   Clear
9:53 AM 84.0 °F 91.2 °F 73.9 °F 72% 30.01 in 10.0 mi Variable 3.5 mph - N/A   Clear
10:53 AM 89.1 °F 95.0 °F 71.1 °F 55% 30.01 in 10.0 mi SE 8.1 mph - N/A   Clear
11:53 AM 91.9 °F 97.4 °F 70.0 °F 48% 30.00 in 10.0 mi SSE 4.6 mph - N/A   Clear
12:53 PM 96.1 °F 97.3 °F 63.0 °F 33% 29.98 in 10.0 mi North - - N/A   Clear
1:53 PM 100.0 °F 97.9 °F 53.1 °F 21% 29.96 in 10.0 mi SSE 8.1 mph - N/A   Clear
2:53 PM 102.0 °F 100.1 °F 54.0 °F 20% 29.92 in 10.0 mi North - - N/A   Clear
3:53 PM 102.9 °F 101.4 °F 55.0 °F 20% 29.89 in 10.0 mi SSE 9.2 mph - N/A   Clear
4:53 PM 105.1 °F 103.3 °F 54.0 °F 18% 29.86 in 10.0 mi North 3.5 mph - N/A   Clear
5:53 PM 102.9 °F 101.4 °F 55.0 °F 20% 29.85 in 10.0 mi ESE 13.8 mph - N/A   Scattered Clouds
6:53 PM 102.0 °F 100.1 °F 54.0 °F 20% 29.85 in 10.0 mi SE 9.2 mph - N/A   Clear
7:53 PM 99.0 °F 96.9 °F 54.0 °F 22% 29.84 in 10.0 mi SE 9.2 mph - N/A   Clear
8:53 PM 91.9 °F 95.4 °F 66.9 °F 44% 29.88 in 10.0 mi SE 17.3 mph 27.6 mph N/A   Clear
9:53 PM 90.0 °F 96.9 °F 72.0 °F 55% 29.92 in 10.0 mi SE 15.0 mph 25.3 mph N/A   Clear
10:53 PM 88.0 °F 95.6 °F 73.0 °F 61% 29.94 in 10.0 mi SE 15.0 mph - N/A   Partly Cloudy
11:53 PM 86.0 °F 93.8 °F 73.9 °F 67% 29.95 in 10.0 mi SSE 16.1 mph 21.9 mph N/A   Clear